[[{"header":{"parameterUnit":"m.s-1","parameterCategory":1,"la1":30.2991,"la2":30.254,"lo1":-89.0895,"lo2":-89.0444,"dy":0.0017,"dx":0.0017,"nx":28,"ny":28,"refTime":"2025-05-23T21:00:00:Z","depth":0,"parameterNumber":2,"parameterNumberName":"U-component_of_WINDS"},"data":[0,0,0,0,0,0,0,0,0,0,0,0,0,0,0,0,0,0,0,0,0,0,0,0,0,0,0,0,0,0,0,0,0,0,0,0,0,0,0,0,0,0,0,0,0,0,0,0,0,0,0,0,0,0,0,0,0,0,-1.0856,-1.0855,0,-1.0822,-1.0822,-1.0821,-1.0801,-1.0801,-1.0801,-1.0801,-1.0766,-1.0766,-1.0765,0,0,0,0,0,0,0,0,0,0,0,0,0,-1.0901,-1.09,-1.0856,-1.0855,-1.0855,-1.0822,-1.0822,-1.0821,-1.0801,-1.0801,-1.0801,-1.0801,-1.0767,-1.0766,-1.0765,0,0,0,0,0,0,0,0,0,0,0,0,0,-1.0876,-1.09,-1.0856,-1.0841,-1.0839,-1.0822,-1.0822,-1.0821,-1.0801,-1.0801,-1.0801,-1.0801,-1.0767,-1.0766,-1.0765,-1.076,0,0,-1.0761,-1.076,0,0,0,0,0,0,0,0,-1.0877,-1.0874,-1.0844,-1.0842,-1.084,-1.0816,-1.0825,-1.0801,-1.0801,-1.0816,-1.0801,-1.0801,-1.0783,-1.078,-1.0774,-1.0758,-1.0757,-1.0761,-1.076,-1.0759,-1.0759,0,0,0,0,0,0,0,-1.0879,-1.0876,-1.0842,-1.0843,-1.0841,-1.0835,-1.0832,-1.082,-1.0801,-1.0814,-1.0813,-1.0809,-1.0782,-1.0776,-1.0773,-1.0756,-1.0761,-1.076,-1.0759,-1.0758,-1.0733,-1.0733,0,0,0,0,0,0,-1.0883,-1.0877,-1.0844,-1.0841,-1.0859,-1.0835,-1.0831,-1.0824,-1.0801,-1.0797,-1.0809,-1.0808,-1.0778,-1.0775,-1.0772,-1.0764,-1.0759,-1.0758,-1.0758,-1.0732,-1.0733,-1.0733,0,0,0,0,0,0,-1.0884,-1.0881,-1.0845,-1.0859,-1.0854,-1.0834,-1.0826,-1.0823,-1.0817,-1.0797,-1.0793,-1.0806,-1.0778,-1.0774,-1.0763,-1.0762,-1.0758,-1.0757,-1.0732,-1.0732,-1.0733,-1.0748,0,0,0,0,0,0,-1.0886,-1.0881,-1.088,-1.0859,-1.0853,-1.0836,-1.0826,-1.0822,-1.0815,-1.0813,-1.0793,-1.079,-1.0777,-1.0765,-1.0761,-1.076,-1.0756,-1.0732,-1.0732,-1.0733,-1.0747,-1.0748,-1.0749,0,0,0,0,0,-1.0888,-1.0886,-1.088,-1.0876,-1.0851,-1.0837,-1.0833,-1.0819,-1.0815,-1.0813,-1.0799,-1.079,-1.0763,-1.0764,-1.076,-1.0759,-1.0732,-1.0732,-1.0733,-1.0747,-1.0748,-1.0749,0,0,0,0,0,0,-1.0907,-1.0883,-1.0876,-1.0867,-1.0854,-1.0833,-1.083,-1.0821,-1.0809,-1.0808,-1.079,-1.0786,-1.0776,-1.0766,-1.0767,-1.0752,-1.0746,-1.0746,-1.0759,-1.076,-1.0761,-1.0763,-1.0755,0,0,0,0,0,-1.0911,-1.0901,-1.088,-1.0875,-1.0868,-1.085,-1.0844,-1.0833,-1.0819,-1.0813,-1.0799,-1.0786,-1.0773,-1.0766,-1.0754,-1.0746,-1.074,-1.0743,-1.0744,-1.0745,-1.0744,-1.0737,-1.0738,-1.0733,-1.0733,-1.0733,0,0,-1.0918,-1.0903,-1.0898,-1.0878,-1.0867,-1.0857,-1.0846,-1.0836,-1.0828,-1.0812,-1.08,-1.0789,-1.0772,-1.0762,-1.0757,-1.0754,-1.0744,-1.0745,-1.0746,-1.0745,-1.0737,-1.0738,-1.0738,-1.0733,-1.0733,-1.0733,0,0,-1.0925,-1.0913,-1.0906,-1.0895,-1.0877,-1.0865,-1.0863,-1.0843,-1.0835,-1.0823,-1.081,-1.08,-1.078,-1.0768,-1.076,-1.076,-1.0751,-1.0757,-1.0762,-1.0756,-1.0756,-1.0756,-1.0755,-1.0755,-1.0757,-1.0757,-1.0757,0,-1.0935,-1.092,-1.0904,-1.0895,-1.0886,-1.087,-1.0862,-1.0852,-1.0831,-1.0825,-1.0822,-1.0795,-1.0783,-1.0769,-1.0768,-1.0762,-1.0759,-1.0759,-1.0757,-1.0757,-1.0757,-1.0756,-1.0756,-1.0757,-1.0757,-1.0757,-1.0757,0,-1.0933,-1.0922,-1.0919,-1.0899,-1.089,-1.0881,-1.0863,-1.0856,-1.0846,-1.0834,-1.082,-1.0805,-1.0789,-1.0785,-1.0776,-1.0768,-1.0767,-1.0761,-1.0755,-1.0759,-1.0757,-1.0756,-1.0758,-1.0758,-1.0758,-1.0758,0,0,-1.0952,-1.0923,-1.0922,-1.0911,-1.089,-1.0881,-1.0871,-1.0855,-1.0848,-1.0834,-1.0825,-1.0807,-1.0801,-1.0791,-1.078,-1.0774,-1.0774,-1.0769,-1.0768,-1.0769,-1.0763,-1.0767,-1.0767,-1.0767,-1.0767,-1.0767,-1.0764,0,-1.0955,-1.0937,-1.0922,-1.0909,-1.0898,-1.0882,-1.0873,-1.0859,-1.0847,-1.0835,-1.0822,-1.0809,-1.0802,-1.0796,-1.079,-1.0775,-1.0772,-1.0775,-1.0758,-1.0757,-1.0762,-1.0767,-1.0771,-1.0769,-1.0764,-1.0763,-1.0763,0,-1.0957,-1.0943,-1.0929,-1.0907,-1.0901,-1.0894,-1.0877,-1.0866,-1.0849,-1.084,-1.0829,-1.0817,-1.0805,-1.08,-1.0782,-1.0785,-1.0776,-1.0768,-1.0767,-1.0765,-1.076,-1.0763,-1.0769,-1.0768,-1.0762,-1.0763,-1.0763,0,-1.0971,-1.0948,-1.0936,-1.0928,-1.0903,-1.0898,-1.0887,-1.0869,-1.086,-1.0845,-1.0838,-1.0822,-1.0813,-1.08,-1.0784,-1.0783,-1.0767,-1.0762,-1.0759,-1.0759,-1.0757,-1.0757,-1.076,-1.0752,-1.0752,-1.0753,-1.0753,0,-1.0975,-1.0967,-1.0942,-1.0935,-1.0924,-1.0906,-1.0896,-1.0884,-1.0868,-1.0858,-1.0843,-1.0833,-1.0813,-1.08,-1.0787,-1.0773,-1.077,-1.0762,-1.0758,-1.0763,-1.0764,-1.0757,-1.0756,-1.0752,-1.0752,-1.0752,-1.0752,0,-1.0989,-1.0972,-1.0958,-1.0934,-1.0928,-1.0922,-1.0901,-1.0893,-1.088,-1.0866,-1.0862,-1.0841,-1.0825,-1.0808,-1.0786,-1.0777,-1.0764,-1.076,-1.077,-1.0768,-1.0766,-1.0766,-1.0764,-1.0762,-1.0757,-1.0757,-1.0757,0,-1.0993,-1.0986,-1.0961,-1.0953,-1.0942,-1.0929,-1.0919,-1.0901,-1.0891,-1.087,-1.0864,-1.0847,-1.0832,-1.0807,-1.079,-1.0773,-1.0767,-1.0768,-1.0765,-1.0769,-1.0766,-1.0766,-1.0765,-1.0769,-1.0769,-1.0769,-1.0769,0,-1.1,-1.0992,-1.0978,-1.0961,-1.0949,-1.0935,-1.092,-1.0914,-1.0893,-1.0882,-1.0865,-1.0854,-1.0831,-1.0814,-1.0795,-1.0783,-1.0772,-1.077,-1.0768,-1.0772,-1.0778,-1.0774,-1.0771,-1.077,-1.077,-1.077,-1.077,-1.077,-1.1008,-1.1001,-1.0982,-1.0967,-1.0953,-1.0939,-1.093,-1.0915,-1.0901,-1.0881,-1.0871,-1.0854,-1.0835,-1.0808,-1.0796,-1.0782,-1.0779,-1.0776,-1.0776,-1.0775,-1.0776,-1.0781,-1.0778,-1.0778,-1.0778,-1.0778,-1.0778,0,-1.1014,-1.1001,-1.0987,-1.0966,-1.0954,-1.0945,-1.0927,-1.0917,-1.0903,-1.0886,-1.0872,-1.0852,-1.0834,-1.0815,-1.0796,-1.0789,-1.0783,-1.0784,-1.0785,-1.0782,-1.0781,-1.0783,-1.0789,-1.0789,-1.0789,-1.0789,-1.0789,-1.0789,-1.1016,-1.1002,-1.0991,-1.097,-1.0957,-1.094,-1.0931,-1.0917,-1.0904,-1.0882,-1.0868,-1.0855,-1.0837,-1.0817,-1.08,-1.0795,-1.0788,-1.079,-1.0784,-1.0783,-1.0782,-1.0781,-1.0784,-1.0789,-1.0789,-1.0786,-1.0786,-1.0786]},{"header":{"parameterUnit":"m.s-1","parameterCategory":1,"la1":30.2991,"la2":30.254,"lo1":-89.0895,"lo2":-89.0444,"dy":0.0017,"dx":0.0017,"nx":28,"ny":28,"refTime":"2025-05-23T21:00:00:Z","depth":0,"parameterNumber":3,"parameterNumberName":"V-component_of_WINDS"},"data":[0,0,0,0,0,0,0,0,0,0,0,0,0,0,0,0,0,0,0,0,0,0,0,0,0,0,0,0,0,0,0,0,0,0,0,0,0,0,0,0,0,0,0,0,0,0,0,0,0,0,0,0,0,0,0,0,0,0,1.2048,1.2048,0,1.2014,1.2013,1.2013,1.1999,1.1999,1.1999,1.1999,1.1962,1.196,1.1959,0,0,0,0,0,0,0,0,0,0,0,0,0,1.21,1.2099,1.2048,1.2048,1.2047,1.2014,1.2013,1.2013,1.1999,1.1999,1.1999,1.1999,1.1962,1.1961,1.1959,0,0,0,0,0,0,0,0,0,0,0,0,0,1.2072,1.2098,1.2048,1.2036,1.2035,1.2014,1.2013,1.2013,1.1999,1.1999,1.1999,1.1999,1.1962,1.1961,1.1959,1.1947,0,0,1.1954,1.1953,0,0,0,0,0,0,0,0,1.2074,1.2071,1.2038,1.2037,1.2035,1.2011,1.2018,1.199,1.1999,1.2013,1.1999,1.1999,1.1978,1.1975,1.1968,1.1945,1.1943,1.1954,1.1953,1.1952,1.1952,0,0,0,0,0,0,0,1.2076,1.2072,1.2034,1.2038,1.2036,1.2032,1.2028,1.2012,1.1995,1.2011,1.201,1.2007,1.1977,1.197,1.1967,1.1943,1.1954,1.1953,1.1952,1.1951,1.1908,1.1908,0,0,0,0,0,0,1.208,1.2074,1.2035,1.2033,1.2056,1.2031,1.2027,1.2019,1.1995,1.1991,1.2006,1.2006,1.1972,1.1969,1.1966,1.195,1.1952,1.1951,1.195,1.1908,1.1908,1.1908,0,0,0,0,0,0,1.2081,1.2077,1.2037,1.2053,1.2048,1.203,1.2021,1.2018,1.2011,1.1991,1.1988,1.2002,1.1972,1.1968,1.1952,1.1948,1.195,1.1949,1.1909,1.1908,1.1908,1.1918,0,0,0,0,0,0,1.2083,1.2077,1.2073,1.2053,1.2047,1.2024,1.2021,1.2017,1.2008,1.2007,1.1987,1.1983,1.1972,1.1954,1.195,1.1946,1.1947,1.1909,1.1908,1.1908,1.1918,1.1918,1.1918,0,0,0,0,0,1.2085,1.2076,1.2072,1.2068,1.2041,1.2024,1.202,1.2008,1.2008,1.2003,1.1991,1.1984,1.195,1.1953,1.1948,1.1943,1.1909,1.1909,1.1908,1.1918,1.1918,1.1918,0,0,0,0,0,0,1.2094,1.2073,1.2069,1.2054,1.2041,1.2022,1.2015,1.2009,1.1995,1.1995,1.198,1.1975,1.196,1.195,1.1954,1.193,1.1929,1.1927,1.1938,1.1938,1.1938,1.194,1.1946,0,0,0,0,0,1.2095,1.2084,1.2065,1.2054,1.2048,1.2033,1.2025,1.2017,1.2002,1.1997,1.1983,1.1969,1.1955,1.1946,1.1932,1.1916,1.1912,1.1911,1.1911,1.1912,1.191,1.1902,1.1902,1.1907,1.1907,1.1907,0,0,1.2095,1.2083,1.2076,1.2056,1.2045,1.2033,1.2028,1.2015,1.2006,1.1994,1.1979,1.1968,1.1951,1.1936,1.1928,1.1927,1.1908,1.1911,1.1911,1.191,1.1902,1.1901,1.1901,1.1907,1.1907,1.1907,0,0,1.2091,1.208,1.207,1.2059,1.2043,1.2033,1.2031,1.2012,1.2005,1.199,1.1981,1.1969,1.1946,1.1934,1.1925,1.1917,1.1911,1.1913,1.1914,1.1906,1.1906,1.1905,1.1903,1.1902,1.1912,1.1912,1.1912,0,1.2093,1.2076,1.2065,1.2053,1.2044,1.2034,1.2023,1.2013,1.1993,1.1987,1.1986,1.1957,1.1944,1.1926,1.1925,1.1918,1.1914,1.1915,1.1907,1.1906,1.1906,1.1903,1.1902,1.1913,1.1913,1.1913,1.1912,0,1.208,1.2068,1.2061,1.2044,1.2034,1.2023,1.201,1.2001,1.1995,1.1985,1.1969,1.1954,1.1938,1.1933,1.1925,1.1914,1.1914,1.191,1.1908,1.1906,1.1903,1.1902,1.1913,1.1913,1.1913,1.1913,0,0,1.2079,1.2057,1.2054,1.2046,1.2028,1.2019,1.2007,1.1992,1.1985,1.1972,1.1961,1.1942,1.1939,1.1929,1.192,1.1914,1.1909,1.1911,1.191,1.1911,1.1896,1.1898,1.1897,1.1905,1.1904,1.1904,1.1897,0,1.2072,1.2052,1.2042,1.2026,1.2015,1.2006,1.1996,1.1983,1.1974,1.1963,1.1952,1.1939,1.1936,1.193,1.1923,1.1911,1.1906,1.1911,1.1894,1.1894,1.1899,1.1896,1.1899,1.1892,1.1896,1.1896,1.1896,0,1.2061,1.2049,1.2032,1.2016,1.2011,1.2003,1.1988,1.1978,1.1964,1.1958,1.1947,1.1939,1.1926,1.1926,1.1908,1.1912,1.1905,1.1898,1.1897,1.1895,1.1894,1.1893,1.189,1.1889,1.1894,1.1894,1.1894,0,1.2062,1.2042,1.203,1.2023,1.2004,1.1998,1.199,1.1976,1.1968,1.1955,1.195,1.1935,1.1927,1.1916,1.1904,1.1905,1.1888,1.1886,1.1882,1.1882,1.1878,1.1879,1.1874,1.1874,1.1874,1.1874,1.1874,0,1.2055,1.2045,1.203,1.2022,1.2011,1.2,1.1989,1.198,1.1968,1.1958,1.1949,1.1939,1.1925,1.1913,1.1904,1.1891,1.1887,1.1882,1.1879,1.1882,1.1883,1.1877,1.1877,1.1874,1.1874,1.1874,1.1874,0,1.2055,1.2044,1.203,1.2014,1.201,1.2002,1.1988,1.198,1.1971,1.1959,1.1955,1.1941,1.1927,1.1914,1.1896,1.189,1.1876,1.1873,1.1881,1.188,1.1877,1.1877,1.1868,1.1866,1.1867,1.1867,1.1867,0,1.2051,1.2043,1.2027,1.202,1.2013,1.2002,1.1994,1.1982,1.1974,1.1959,1.1952,1.1939,1.1927,1.1905,1.1893,1.1879,1.1875,1.1873,1.1873,1.1877,1.1875,1.1876,1.1875,1.1873,1.1873,1.1873,1.1873,0,1.2045,1.2041,1.203,1.2018,1.2009,1.1998,1.1987,1.1982,1.1969,1.196,1.1947,1.1938,1.192,1.1906,1.1891,1.1882,1.1875,1.1873,1.1872,1.1875,1.188,1.1877,1.1882,1.1873,1.1873,1.1873,1.1873,1.1873,1.2043,1.2036,1.2024,1.2012,1.2003,1.1994,1.1986,1.1976,1.1965,1.195,1.1944,1.1931,1.1918,1.1897,1.1888,1.1877,1.1875,1.1873,1.1872,1.1872,1.1873,1.1882,1.1874,1.1874,1.1874,1.1874,1.1874,0,1.2037,1.2029,1.2019,1.2004,1.1995,1.1991,1.1979,1.1972,1.196,1.1949,1.1938,1.1923,1.191,1.1897,1.1883,1.1877,1.1874,1.1874,1.1874,1.1872,1.1875,1.1877,1.1877,1.1877,1.1877,1.1877,1.1877,1.1877,1.2033,1.2021,1.2015,1.1999,1.1991,1.1979,1.1972,1.1963,1.1954,1.1938,1.1928,1.192,1.1908,1.1893,1.1881,1.1877,1.1873,1.1874,1.1869,1.1872,1.1872,1.1871,1.1874,1.1873,1.1873,1.1867,1.1867,1.1867]}]]